SCP
0 0 0 0 0 0 0 0 0 0 0 0 0 0 0 0 0 0 0 0 0 0 0 0 0 0 0 0 0 0 0 0 0 0 0 0 0 0 0 0 0 0 0
0 0 0 0 0 0 0 0 0 0 0 0 0 0 0 0 0 0 0 0 0 0 0 0 0 0 0 0 0 0 0 0 0 0 0 0 0 0 0 0 0 0 0
0 0 0 0 0 0 0 0 0 0 0 0 0 0 0 0 0 0 0 0 0 0 0 0 0 0 0 0 0 0 0 0 0 0 0 0 0 0 0 0 0 0 0
0 0 0 0 0 0 0 0 0 0 0 0 0 0 0 0 0 0 0 0 0 0 0 0 0 0 0 0 0 0 0 0 0 0 0 0 0 0 0 0 0 0 0
0 0 0 0 0 0 0 0 0 0 0 0 0 0 0 0 0 0 0 0 0 0 0 0 0 0 0 0 0 0 0 0 0 0 0 0 0 0 0 0 0 0 0
0 0 0 0 0 0 0 0 0 0 0 0 0 0 0 0 0 0 0 0 0 0 0 0 0 0 0 0 0 0 0 0 0 0 0 0 0 0 0 0 0 0 0
0 0 0 0 0 0 0 0 0 0 0 0 0 0 0 0 0 0 0 0 0 0 0 0 0 0 0 0 0 0 0 0 0 0 0 0 0 0 0 0 0 0 0
0 0 0 0 1 0 0 0 0 0 0 0 0 0 0 0 0 0 0 0 0 0 0 0 0 0 0 0 0 0 0 0 0 0 0 0 0 0 0 0 0 0 0
0 0 0 0 0 0 0 0 0 0 0 0 0 0 0 0 0 0 0 0 0 0 0 0 0 0 0 0 0 0 0 0 0 0 0 0 0 0 0 0 0 0 0
0 0 0 0 0 0 0 0 0 0 0 0 0 0 0 0 0 0 0 0 0 0 0 0 0 0 0 0 0 0 0 0 0 0 0 0 0 0 0 0 0 0 0
0 0 0 0 0 0 0 0 0 0 0 0 0 0 0 0 0 0 0 0 0 0 0 0 0 0 0 0 0 0 0 0 0 0 0 0 0 0 0 0 0 0 0
0 0 0 0 0 0 0 0 0 0 0 0 0 0 0 0 0 0 0 0 0 0 0 0 0 0 0 0 0 0 0 0 0 0 0 0 0 0 0 0 0 0 0
0 0 0 0 0 0 0 0 0 0 0 0 0 0 0 0 0 0 0 0 0 0 0 0 0 0 0 0 0 0 0 0 0 0 0 0 0 0 0 0 0 0 0
0 0 0 0 0 0 0 0 0 0 0 0 0 0 0 0 0 0 0 0 0 0 0 0 0 0 0 0 0 0 0 0 0 0 0 0 0 0 0 0 0 0 0
0 0 0 0 0 0 0 0 0 0 0 0 0 0 0 0 0 0 0 0 0 0 0 0 0 0 0 0 0 0 0 0 0 0 0 0 0 0 0 0 0 0 0
0 0 0 0 0 0 0 0 0 0 0 0 0 0 0 0 0 0 0 0 0 0 0 0 0 0 0 0 0 0 0 0 0 0 0 0 0 0 0 0 0 0 0
0 0 0 0 0 0 0 0 0 0 0 0 0 0 0 0 0 0 0 0 0 0 0 0 0 0 0 0 0 0 0 0 0 0 0 0 0 0 0 0 0 0 0
0 0 0 0 0 0 0 0 0 0 0 0 0 0 0 0 0 0 0 0 0 0 0 0 0 0 0 0 0 0 0 0 0 0 0 0 0 0 0 0 0 0 0
0 0 0 0 0 0 0 0 0 0 0 0 0 0 0 0 0 0 0 0 0 0 0 0 0 0 0 0 0 0 0 0 0 0 0 0 0 0 0 0 0 0 0
0 0 0 0 0 0 0 0 0 0 0 0 0 0 0 0 0 0 0 0 0 0 0 0 0 0 0 0 0 0 0 0 0 0 0 0 0 0 0 0 0 0 0
0 0 0 0 0 0 0 0 0 0 0 0 0 0 0 0 0 0 0 0 0 0 0 0 0 0 0 0 0 0 0 0 0 0 0 0 0 0 0 0 0 0 0
0 0 0 0 0 0 0 0 0 0 0 0 0 0 0 0 0 0 0 0 0 0 0 0 0 0 0 0 0 0 0 0 0 0 0 0 0 0 0 0 0 0 0
-0 0 0 0 0 0 0 0 0 0 0 0 0 0 0 0 0 0 0 0 0 0 0 0 0 0 0 0 0 0 0 0 0 0 0 0 0 0 0 0 0 0 0
0 0 0 0 0 0 0 0 0 0 0 0 0 0 0 0 0 0 0 0 0 0 0 0 0 0 0 0 0 0 0 0 0 0 0 0 0 0 0 0 0 0 0
0 0 0 0 0 0 0 0 0 0 0 0 0 0 0 0 0 0 0 0 0 0 0 0 0 0 0 0 0 0 0 0 0 0 0 0 0 0 0 0 0 0 0
0 0 0 0 0 0 0 0 0 0 0 0 0 0 0 0 0 0 0 0 0 0 0 0 0 0 0 0 0 0 0 0 0 0 0 0 0 0 0 0 0 0 0
Wind_Speed
8 9 20 21 19 18 16 15 13 12 11 11 10 10 9 9 9 9 9 10 11 12 12 12 12 13 13 14 14 15 16 17 18 18 18 18 18 18 18 17 16 11 19
11 13 22 22 20 19 17 15 14 13 12 11 10 10 9 9 9 9 8 9 10 11 11 11 11 12 12 13 13 14 15 16 16 17 17 15 15 17 17 17 17 12 18
11 15 18 22 21 19 18 16 15 14 13 12 11 10 9 9 9 8 8 8 9 10 10 10 10 11 11 12 12 13 14 15 15 16 16 9 9 15 16 16 16 16 16
12 14 12 22 21 20 18 17 16 14 13 12 11 10 10 9 8 8 8 7 8 8 9 9 9 9 10 11 11 12 12 13 14 15 9 8 7 12 15 15 15 15 15
12 12 12 23 22 20 19 18 17 15 14 13 12 11 10 9 8 8 7 7 7 7 8 8 8 8 9 9 10 10 11 11 13 11 7 7 6 10 13 13 13 13 14
11 10 11 24 22 21 20 18 17 16 15 14 13 12 11 10 9 8 7 7 7 6 7 7 7 7 7 8 8 9 9 10 10 6 7 7 6 8 11 11 11 12 12
11 9 9 22 22 21 20 19 18 17 16 15 14 12 11 11 10 9 8 7 6 6 6 5 5 6 6 6 7 7 7 8 6 6 6 6 6 8 9 9 10 10 10
9 9 8 22 21 21 20 19 18 17 16 15 14 13 12 11 10 9 9 8 7 6 5 4 4 4 4 4 5 6 6 5 5 5 5 6 6 6 7 7 8 8 8
7 8 7 9 15 20 20 19 19 18 17 16 15 14 13 12 11 11 9 8 7 6 5 4 3 3 2 2 3 4 4 4 3 3 5 5 6 4 5 5 6 6 6
7 8 8 6 8 10 12 18 19 18 17 16 15 14 13 12 12 11 10 9 8 7 6 5 4 3 2 1 1 3 3 3 1 3 3 5 7 3 3 3 3 4 4
9 8 8 7 7 8 8 12 15 17 16 16 13 14 12 4 4 5 8 10 9 8 7 7 6 5 3 2 2 2 3 2 0 2 3 8 7 4 2 1 1 2 2
15 12 9 8 7 7 7 7 6 6 7 7 5 6 4 4 3 4 8 11 10 9 9 8 8 5 2 1 3 2 2 1 1 2 4 10 8 6 4 3 3 2 2
13 13 13 10 7 8 6 5 4 4 4 5 6 6 5 4 3 3 1 3 2 4 1 2 2 1 2 1 1 0 1 1 2 2 5 11 11 9 8 6 6 5 5
9 13 12 11 8 8 7 5 5 4 4 4 5 7 5 4 3 3 2 2 1 1 1 1 1 1 1 2 2 3 3 2 3 3 5 13 13 12 11 10 9 8 8
10 11 11 11 11 8 7 5 6 5 5 5 5 6 7 5 5 4 3 3 3 2 2 2 2 3 3 3 3 4 5 5 5 4 4 13 15 15 14 13 12 11 11
13 11 11 12 11 9 8 7 6 5 5 5 6 7 8 6 6 5 5 4 4 4 4 4 4 4 4 3 5 6 6 6 6 6 5 8 16 17 17 16 16 15 14
10 9 11 11 10 10 10 8 6 5 6 6 6 7 8 7 7 7 6 6 5 5 5 4 4 3 4 4 6 6 6 6 7 7 7 6 7 15 19 19 19 18 17
7 8 10 11 11 11 10 8 5 5 6 6 5 6 8 9 8 7 7 7 6 5 5 5 4 4 5 5 5 6 6 5 8 8 7 7 6 7 13 21 21 21 20
7 7 9 10 11 11 9 6 5 5 6 5 6 6 8 9 9 8 8 7 6 5 6 6 6 5 6 7 7 7 6 7 8 9 10 10 10 9 8 16 23 23 22
4 6 7 8 8 7 6 4 3 4 5 5 6 7 9 9 10 9 7 7 7 5 6 6 7 6 6 6 6 7 7 8 7 9 12 11 11 13 12 12 11 14 23
2 3 5 6 6 6 5 5 5 6 5 4 6 8 9 9 10 11 9 8 8 9 11 10 7 7 7 3 2 5 6 10 13 12 11 11 13 13 11 12 9 8 9
2 0 2 4 6 6 6 4 3 3 3 4 5 7 10 11 11 11 11 9 9 9 9 9 8 5 5 6 5 2 6 6 6 11 10 10 11 8 10 12 11 11 9
5 2 1 3 5 5 5 3 2 2 1 1 5 6 9 11 11 12 13 12 10 10 11 12 12 11 9 7 8 7 5 7 4 4 6 8 9 8 9 8 11 12 12
6 3 2 0 2 3 5 5 6 5 6 7 5 5 6 9 11 12 12 12 11 11 12 13 12 11 10 9 6 9 10 5 4 6 4 4 6 8 9 9 11 12 12
6 5 4 3 1 2 4 5 6 7 7 5 3 5 6 7 10 12 12 12 12 11 13 13 11 12 11 12 9 6 9 8 8 7 11 6 4 6 9 10 9 9 10
6 6 5 4 3 1 2 4 5 8 8 7 7 6 6 5 6 10 11 11 12 11 13 14 13 13 13 13 12 9 8 7 8 11 15 11 10 7 9 9 10 10 10
Wind_Direction
196 186 188 174 170 170 169 166 162 156 153 147 140 132 123 116 109 102 94 88 86 83 78 75 73 71 71 69 69 66 64 60 56 52 50 55 65 68 68 66 59 52 59
165 175 186 174 172 173 172 170 166 162 159 153 146 140 134 126 118 111 102 95 89 85 80 77 74 72 73 73 72 71 69 64 58 52 46 38 53 66 64 63 62 59 60
156 171 184 174 174 175 174 173 169 167 164 160 154 148 142 135 128 120 111 101 94 88 84 79 77 75 75 76 76 75 72 66 59 50 38 19 27 64 65 63 61 60 59
159 169 182 175 176 177 177 175 173 171 169 166 162 157 151 144 138 130 122 112 103 96 91 85 82 79 79 79 79 78 74 66 58 47 28 13 10 62 64 62 61 60 59
162 169 183 176 177 178 179 177 176 175 174 172 169 166 162 157 151 143 136 126 116 107 99 93 88 84 83 84 83 81 77 67 53 38 20 10 1 58 64 62 61 60 59
163 169 184 177 179 181 181 180 179 180 179 178 176 174 172 167 162 156 148 139 129 121 111 102 93 88 87 89 90 87 81 67 45 25 15 4 350 56 65 63 62 60 58
163 171 187 179 182 183 184 183 183 184 184 183 182 180 179 176 171 166 161 155 148 139 127 115 105 95 89 92 97 95 87 69 48 22 6 356 343 56 64 61 61 60 58
162 169 184 184 185 186 186 186 186 187 188 188 187 186 186 183 180 177 175 172 167 159 148 137 122 110 101 98 103 106 98 73 39 13 353 345 348 57 63 60 58 58 58
162 170 187 191 187 189 190 190 189 190 192 192 192 192 191 191 189 187 185 184 182 179 172 164 152 139 127 114 116 117 115 98 56 357 343 334 341 43 62 58 54 56 56
170 180 188 196 185 184 188 193 193 194 195 196 196 196 195 195 195 195 192 194 195 195 192 192 191 187 180 167 151 142 132 85 41 339 330 315 329 5 46 53 44 45 49
188 194 192 196 188 177 176 193 194 196 198 198 198 198 195 181 176 194 190 202 205 206 208 211 213 214 211 234 252 199 106 96 316 306 308 301 309 316 333 0 5 10 24
196 196 195 194 188 177 179 184 183 184 189 187 174 182 159 137 153 161 197 208 215 217 221 223 225 227 198 59 343 12 77 159 248 281 285 289 291 290 285 278 275 279 286
196 194 196 195 187 182 179 173 169 168 169 169 165 155 139 138 150 155 162 218 242 239 256 289 321 74 105 152 188 183 207 219 244 264 278 280 280 278 275 268 263 262 262
193 199 197 191 188 188 180 174 169 169 171 169 165 155 147 149 158 158 167 176 163 119 157 157 138 149 194 218 226 233 234 229 235 244 262 269 272 273 272 268 263 259 257
205 200 196 192 192 186 182 179 178 180 178 171 166 166 163 166 174 175 180 184 190 181 188 200 207 218 230 240 240 238 239 236 237 237 251 265 269 270 269 267 264 260 256
208 202 194 196 194 187 190 189 185 180 174 171 176 177 175 175 176 180 188 195 201 197 197 200 210 218 229 233 243 240 241 240 239 239 236 257 265 268 268 267 265 262 259
208 195 193 196 192 193 196 193 185 178 174 182 184 181 184 182 182 186 193 203 207 198 196 201 215 219 236 237 244 244 243 241 241 240 239 235 249 261 264 265 265 263 261
199 188 191 195 195 198 199 194 187 180 185 189 184 185 193 193 188 190 201 212 203 191 193 202 207 218 232 235 244 245 242 241 242 242 240 238 233 241 254 258 261 262 261
192 182 184 193 195 197 196 191 189 185 195 193 189 194 198 200 197 200 211 214 194 195 203 215 209 207 227 236 242 246 241 241 244 245 241 238 234 233 232 250 253 256 258
171 178 182 190 191 182 180 181 188 203 207 201 202 206 201 204 203 208 218 213 192 200 212 214 222 213 223 235 253 258 247 241 239 239 242 241 235 232 230 232 241 251 253
105 167 185 186 181 168 171 185 198 218 213 214 216 213 208 209 206 210 223 213 203 214 221 216 214 221 230 203 245 279 264 242 241 239 235 236 237 233 227 226 226 226 243
38 171 200 195 184 184 187 177 184 190 209 214 216 219 215 215 213 215 221 223 214 220 224 217 206 210 219 182 187 239 298 298 247 238 234 234 237 231 229 229 225 225 225
18 344 238 206 195 191 175 146 120 107 3 233 224 226 224 221 220 222 223 224 220 218 226 223 215 212 225 209 196 190 217 248 297 265 234 232 230 226 230 229 228 227 226
5 2 8 193 188 182 169 172 186 202 224 230 222 228 227 220 224 225 228 226 225 223 228 228 220 218 219 225 209 220 226 206 230 290 269 245 237 231 229 230 231 228 226
16 23 26 48 72 155 178 191 201 227 241 252 243 242 237 228 227 228 228 228 230 229 230 231 225 218 218 226 216 204 227 236 228 244 269 261 245 230 228 227 227 227 226
23 29 32 44 43 66 183 203 215 235 250 263 262 258 254 242 235 232 230 231 233 233 233 233 231 224 225 226 227 215 204 205 209 218 244 253 254 236 222 223 223 224 224